Location: �perlecques
(50.8057°N, 2.1521°E)
Time: 08:59:49
(UTC+00:00)

N. Korean satellite - Pass Details

Date: 09 December 2022
Orbit: 407 x 444 km, 97.3° (Epoch: 28 January)

Event Time Altitude Azimuth Distance (km) Brightness Sun altitude
Rises 04:53:43 0° 18° (NNE) 2,504 10.3 -25.2°
Reaches altitude 10° 04:55:53 10° 26° (NNE) 1,616 9.4 -24.9°
Maximum altitude 04:59:11 41° 98° (E) 675 7.7 -24.4°
Drops below altitude 10° 05:02:24 10° 171° (S) 1,575 9.3 -23.9°
Sets 05:04:28 0° 178° (S) 2,430 10.2 -23.5°
